DW7281 Weather Reports


time (UTC)temp
F
wind
direction
speed
knots
gust
knots
rain 1hr
in
rain 24hr
in
rain mn
in
humidity
%
barometer
mb
20260901143059 52 0 0.0 0.0 0.00 0.00 0.00 86 1028.2
20260901141554 52 0 0.0 0.0 0.00 0.00 0.00 86 1028.3
20260901140049 52 0 0.0 0.0 0.00 0.00 0.00 85 1028.1
20260901134557 53 0 0.0 0.0 0.00 0.00 0.00 85 1028.3
20260901133054 53 0 0.0 0.0 0.00 0.00 0.00 84 1028.5
20260901131549 53 0 0.0 0.0 0.00 0.00 0.00 84 1028.6
20260901130059 54 0 0.0 2.6 0.00 0.00 0.00 84 1028.9
20260901124556 54 0 0.0 4.3 0.00 0.00 0.00 84 1028.8
20260901123055 54 0 0.0 3.5 0.00 0.00 0.00 84 1028.9
20260901121551 54 0 0.9 4.3 0.00 0.00 0.00 83 1028.9
20260901120057 55 41 0.0 3.5 0.00 0.00 0.00 83 1028.9
20260901114632 55 0 0.0 2.6 0.00 0.00 0.00 83 1028.9
20260901113101 55 0 0.0 3.5 0.00 0.00 0.00 83 1028.9
20260901111557 55 344 0.0 3.5 0.00 0.00 0.00 82 1028.9
20260901110056 55 0 0.0 0.0 0.00 0.00 0.00 81 1029.0
20260901104555 56 0 0.0 3.5 0.00 0.00 0.00 80 1028.9
20260901103058 56 0 0.0 4.3 0.00 0.00 0.00 80 1028.9
20260901101557 57 0 0.0 3.5 0.00 0.00 0.00 79 1028.9
20260901100101 57 0 0.0 2.6 0.00 0.00 0.00 78 1028.8
20260901094552 58 37 0.0 3.5 0.00 0.00 0.00 76 1028.8
20260901093102 58 0 0.0 3.5 0.00 0.00 0.00 75 1028.7
20260901091555 59 31 0.0 0.9 0.00 0.00 0.00 74 1028.7
20260901090056 59 5 0.0 3.5 0.00 0.00 0.00 73 1028.5
20260901084558 60 0 0.0 4.3 0.00 0.00 0.00 73 1028.3
20260901083058 60 5 0.0 2.6 0.00 0.00 0.00 72 1028.4
20260901081555 61 0 0.9 4.3 0.00 0.00 0.00 71 1028.3
20260901074549 61 0 0.0 7.0 0.00 0.00 0.00 69 1028.2
20260901073059 62 0 0.0 4.3 0.00 0.00 0.00 69 1028.2
20260901071558 62 17 0.0 7.0 0.00 0.00 0.00 68 1028.0
20260901070104 62 19 0.9 7.0 0.00 0.00 0.00 67 1027.9
20260901064551 63 312 0.9 7.0 0.00 0.00 0.00 67 1028.0
20260901063049 63 0 0.9 3.5 0.00 0.00 0.00 66 1028.0
20260901061558 64 0 0.0 4.3 0.00 0.00 0.00 65 1027.9
20260901060051 64 0 0.0 5.2 0.00 0.00 0.00 64 1028.1
20260901054559 64 23 0.9 7.0 0.00 0.00 0.00 65 1028.1
20260901053129 64 0 0.0 9.6 0.00 0.00 0.00 64 1028.1
20260901051549 64 56 1.7 8.7 0.00 0.00 0.00 64 1028.2
20260901050057 65 30 2.6 10.4 0.00 0.00 0.00 62 1028.2
20260901044600 66 0 0.0 7.0 0.00 0.00 0.00 61 1028.4
20260901043054 66 0 2.6 9.6 0.00 0.00 0.00 60 1028.5
20260901041603 67 38 1.7 8.7 0.00 0.00 0.00 60 1028.5
20260901040103 66 0 0.0 11.3 0.00 0.00 0.00 62 1028.9
20260901034550 67 9 1.7 9.6 0.00 0.00 0.00 61 1029.2
20260901033116 67 16 3.5 10.4 0.00 0.00 0.00 59 1029.4
20260901031553 67 350 0.0 9.6 0.00 0.00 0.00 55 1029.5
20260901030106 66 0 0.9 8.7 0.00 0.00 0.00 54 1029.6
20260901024557 67 9 0.9 7.0 0.00 0.00 0.00 56 1029.9
20260901023054 66 0 0.0 10.4 0.00 0.00 0.00 56 1030.0
20260901021605 66 0 0.0 8.7 0.00 0.00 0.00 57 1030.4
20260901020110 66 0 0.9 8.7 0.00 0.00 0.00 58 1030.8
20260901014558 65 59 0.9 10.4 0.00 0.00 0.00 61 1031.0
20260901013115 65 0 1.7 7.0 0.00 0.00 0.00 64 1031.4
20260901011612 65 0 1.7 10.4 0.00 0.00 0.00 66 1031.6
20260901010114 64 15 1.7 9.6 0.00 0.00 0.00 66 1031.8
20260901004611 64 28 0.9 9.6 0.00 0.00 0.00 68 1032.1
20260901003100 62 0 2.6 9.6 0.00 0.00 0.00 70 1032.1
20260901001557 62 26 3.5 9.6 0.00 0.00 0.00 70 1032.4
20260901000100 62 59 1.7 10.4 0.00 0.00 0.00 72 1032.5
20260831234559 61 0 2.6 12.2 0.00 0.00 0.00 74 1032.7
20260831233100 60 17 1.7 11.3 0.00 0.00 0.00 78 1032.6
20260831231557 59 36 2.6 9.6 0.00 0.00 0.00 80 1032.8
20260831230054 60 23 1.7 10.4 0.00 0.00 0.00 78 1033.0
20260831224558 59 0 1.7 9.6 0.00 0.00 0.00 80 1032.8
20260831223058 58 42 2.6 9.6 0.00 0.00 0.00 82 1032.8
20260831221603 56 24 2.6 8.7 0.00 0.00 0.00 83 1032.7
20260831220114 56 28 3.5 9.6 0.00 0.00 0.00 83 1032.6
20260831214608 56 0 2.6 8.7 0.00 0.00 0.00 84 1032.4
20260831213054 55 32 3.5 10.4 0.00 0.00 0.00 85 1032.1
20260831211550 54 69 2.6 8.7 0.00 0.00 0.00 87 1032.0
20260831210100 52 32 2.6 7.8 0.00 0.00 0.00 88 1031.7
20260831204557 51 20 2.6 7.8 0.00 0.00 0.00 89 1031.6
20260831203059 50 23 1.7 6.1 0.00 0.00 0.00 89 1031.4
20260831201557 50 0 2.6 6.1 0.00 0.00 0.00 90 1031.1
20260831200111 50 42 0.9 6.1 0.00 0.00 0.00 90 1031.0
20260831194610 50 24 0.9 7.8 0.00 0.00 0.00 90 1030.8
20260831193050 50 0 0.0 3.5 0.00 0.00 0.00 90 1030.7
20260831191555 50 0 0.0 2.6 0.00 0.00 0.00 90 1030.7
20260831190106 50 0 0.0 3.5 0.00 0.00 0.00 90 1030.6
20260831184600 50 0 0.9 5.2 0.00 0.00 0.00 90 1030.5
20260831183059 50 0 0.9 4.3 0.00 0.00 0.00 91 1030.2
20260831181559 50 38 1.7 6.1 0.00 0.00 0.00 91 1030.2
20260831180101 50 0 0.9 5.2 0.00 0.00 0.00 91 1030.3
20260831174559 50 0 0.0 1.7 0.00 0.00 0.00 90 1030.3
20260831173101 51 15 0.0 6.1 0.00 0.00 0.00 90 1030.4
20260831171556 51 0 0.0 5.2 0.00 0.00 0.00 90 1030.4
20260831170055 51 19 1.7 4.3 0.00 0.00 0.00 90 1030.5
20260831164551 51 0 2.6 7.0 0.00 0.00 0.00 90 1030.7
20260831163102 52 44 0.9 7.8 0.00 0.00 0.00 90 1030.9
20260831161556 52 49 0.9 7.0 0.00 0.00 0.00 89 1031.0
20260831154619 52 32 2.6 7.0 0.00 0.00 0.00 89 1031.5
20260831153059 53 42 1.7 10.4 0.00 0.00 0.00 89 1031.7
20260831151550 53 27 1.7 8.7 0.00 0.00 0.00 89 1031.8
20260831150110 53 38 3.5 7.8 0.00 0.00 0.00 89 1031.7
20260831144603 53 0 3.5 9.6 0.00 0.00 0.00 89 1031.9